GW3496 Weather Reports


time (UTC)temp
F
wind
direction
speed
knots
gust
knots
rain 1hr
in
rain 24hr
in
rain mn
in
humidity
%
barometer
mb
20260510094559 56 332 0.0 0.0 0.00 0.00 0.00 88 1009.3
20260510093105 56 9 0.0 0.0 0.00 0.00 0.00 88 1009.1
20260510091550 56 9 0.0 0.0 0.00 0.00 0.00 88 1009.1
20260510090051 56 20 0.0 0.0 0.00 0.00 0.00 87 1008.8
20260510084546 56 309 0.0 0.0 0.00 0.00 0.00 87 1008.8
20260510083053 57 346 1.7 3.5 0.00 0.00 0.00 86 1008.8
20260510081548 58 230 0.9 3.5 0.00 0.00 0.00 86 1008.7
20260510080046 58 274 0.0 0.0 0.00 0.00 0.00 85 1008.5
20260510074552 58 126 0.0 1.7 0.00 0.00 0.00 84 1008.4
20260510073051 58 272 0.0 0.0 0.00 0.00 0.00 83 1008.2
20260510071546 59 251 0.0 0.0 0.00 0.00 0.00 82 1008.3
20260510070040 60 108 0.0 0.0 0.00 0.00 0.00 81 1008.1
20260510064943 60 190 0.0 0.0 0.00 0.00 0.00 80 1008.0
20260510063035 60 174 0.0 0.0 0.00 0.00 0.00 79 1008.2
20260510061535 61 156 0.0 0.0 0.00 0.00 0.00 78 1008.2
20260510060044 62 162 0.0 0.0 0.00 0.00 0.00 77 1008.2
20260510054541 62 284 0.0 0.0 0.00 0.00 0.00 76 1008.0
20260510053038 63 166 0.0 2.6 0.00 0.00 0.00 75 1008.0
20260510051535 63 268 1.7 4.3 0.00 0.00 0.00 74 1008.0
20260510050044 64 253 2.6 3.5 0.00 0.00 0.00 72 1008.0
20260510044532 65 261 0.0 2.6 0.00 0.00 0.00 71 1008.3
20260510043040 65 258 2.6 6.1 0.00 0.00 0.00 70 1008.1
20260510041541 66 240 3.5 6.1 0.00 0.00 0.00 70 1008.0
20260510040050 66 158 3.5 7.0 0.00 0.00 0.00 69 1007.9
20260510034542 66 201 4.3 8.7 0.00 0.00 0.00 68 1007.9
20260510033041 67 207 3.5 5.2 0.00 0.00 0.00 66 1007.7
20260510031540 67 211 3.5 7.0 0.00 0.00 0.00 64 1007.7
20260510030049 67 201 3.5 5.2 0.00 0.00 0.00 64 1007.7
20260510024534 68 165 3.5 5.2 0.00 0.00 0.00 62 1007.5
20260510023035 68 192 2.6 7.0 0.00 0.00 0.00 62 1007.4
20260510021538 69 192 1.7 5.2 0.00 0.00 0.00 61 1007.2
20260510020040 70 206 0.9 3.5 0.00 0.00 0.00 59 1007.1
20260510014538 70 184 0.0 3.5 0.00 0.00 0.00 58 1006.8
20260510013033 71 192 1.7 3.5 0.00 0.00 0.00 57 1006.5
20260510011546 71 155 0.9 4.3 0.00 0.00 0.00 56 1006.5
20260510010041 72 179 1.7 4.3 0.00 0.00 0.00 55 1006.4
20260510004542 73 175 0.9 3.5 0.00 0.00 0.00 54 1006.2
20260510003041 73 169 1.7 7.0 0.00 0.00 0.00 52 1006.1
20260510001543 74 212 3.5 7.0 0.00 0.00 0.00 51 1006.0
20260510000042 75 216 3.5 6.1 0.00 0.00 0.00 50 1005.8
20260509234543 75 201 3.5 7.0 0.00 0.00 0.00 49 1005.9
20260509233039 76 198 2.6 7.8 0.00 0.00 0.00 48 1005.9
20260509231542 76 165 4.3 11.3 0.00 0.00 0.00 47 1005.9
20260509230044 77 225 6.1 12.2 0.00 0.00 0.00 46 1005.8
20260509224542 77 205 3.5 8.7 0.00 0.00 0.00 46 1005.6
20260509223040 77 201 7.0 14.8 0.00 0.00 0.00 45 1005.7
20260509221538 76 232 6.1 10.4 0.00 0.00 0.00 46 1005.9
20260509220040 76 215 10.4 15.6 0.00 0.00 0.00 45 1005.8
20260509214540 77 219 6.1 10.4 0.00 0.00 0.00 46 1005.8
20260509213039 76 198 7.8 15.6 0.00 0.00 0.00 47 1005.8
20260509211535 76 169 4.3 10.4 0.00 0.00 0.00 46 1005.6
20260509210058 77 252 3.5 14.8 0.00 0.00 0.00 47 1005.5
20260509204541 77 122 3.5 13.9 0.00 0.00 0.00 48 1005.5
20260509203042 76 201 7.8 18.2 0.00 0.00 0.00 48 1005.5
20260509201540 76 190 6.1 15.6 0.00 0.00 0.00 50 1005.7
20260509200047 75 232 7.8 13.0 0.00 0.00 0.00 51 1006.0
20260509194542 75 244 7.0 15.6 0.00 0.00 0.00 50 1006.1
20260509193042 74 250 3.5 11.3 0.00 0.00 0.00 53 1006.3
20260509191541 72 223 4.3 12.2 0.00 0.00 0.00 56 1006.7
20260509190047 73 206 6.1 9.6 0.00 0.00 0.00 55 1006.8
20260509184546 73 224 7.8 13.0 0.00 0.00 0.00 56 1007.0
20260509183039 72 169 9.6 13.0 0.00 0.00 0.00 57 1007.2
20260509181551 72 250 7.0 14.8 0.00 0.00 0.00 56 1007.3
20260509180046 72 248 7.0 14.8 0.00 0.00 0.00 57 1007.5
20260509174541 72 236 7.0 12.2 0.00 0.00 0.00 56 1007.6
20260509173041 72 196 4.3 16.5 0.00 0.00 0.00 56 1007.5
20260509171543 71 210 8.7 16.5 0.00 0.00 0.00 57 1007.7
20260509170047 70 180 7.8 13.0 0.00 0.00 0.00 59 1007.9
20260509164543 69 234 8.7 13.9 0.00 0.00 0.00 58 1007.9
20260509163039 69 223 10.4 15.6 0.00 0.00 0.00 58 1008.0
20260509161537 70 252 8.7 15.6 0.00 0.00 0.00 57 1008.1
20260509160041 70 250 7.8 18.2 0.00 0.00 0.00 56 1008.2
20260509154543 70 190 7.0 19.1 0.00 0.00 0.00 56 1008.2
20260509153050 69 205 12.2 20.9 0.00 0.00 0.00 57 1008.4
20260509151539 68 248 7.0 18.2 0.00 0.00 0.00 59 1008.6
20260509150047 67 194 9.6 17.4 0.00 0.00 0.00 60 1008.3
20260509144543 66 215 9.6 20.0 0.00 0.00 0.00 61 1008.7
20260509143043 65 244 11.3 18.2 0.00 0.00 0.00 62 1008.9
20260509141541 64 130 9.6 16.5 0.00 0.00 0.00 63 1008.9
20260509140051 64 207 7.0 15.6 0.00 0.00 0.00 64 1009.3
20260509134545 63 212 8.7 15.6 0.00 0.00 0.00 65 1009.5
20260509133047 62 182 8.7 14.8 0.00 0.00 0.00 66 1009.4
20260509131544 61 191 7.8 13.0 0.00 0.00 0.00 68 1009.4
20260509130048 60 223 5.2 15.6 0.00 0.00 0.00 70 1009.5
20260509124549 59 198 6.1 10.4 0.00 0.00 0.00 71 1009.5
20260509123050 58 139 9.6 16.5 0.00 0.00 0.00 72 1009.4
20260509121547 57 210 5.2 9.6 0.00 0.00 0.00 74 1009.5
20260509120105 56 207 7.8 13.0 0.00 0.00 0.00 75 1009.5
20260509114547 56 199 5.2 16.5 0.00 0.00 0.00 74 1009.5
20260509113054 55 174 7.0 12.2 0.00 0.00 0.00 74 1009.4
20260509111539 55 215 6.1 9.6 0.00 0.00 0.00 73 1009.4
20260509110053 55 209 6.1 10.4 0.00 0.00 0.00 72 1009.2
20260509104545 55 157 2.6 12.2 0.00 0.00 0.00 71 1009.1
20260509103046 55 192 4.3 13.0 0.00 0.00 0.00 71 1009.2
20260509101553 55 211 5.2 8.7 0.00 0.00 0.00 70 1009.3
20260509100052 55 194 2.6 4.3 0.00 0.00 0.00 69 1009.1